GW3872 Weather Reports


Display with metric or nautical units.
time (UTC)temp
F
wind
direction
speed
MPH
gust
MPH
rain 1hr
in
rain 24hr
in
rain mn
in
humidity
%
barometer
mb
20260508231318 68 243 6.0 13.0 0.00 0.00 0.00 46 1008.2
20260508230829 68 222 3.0 11.0 0.00 0.00 0.00 48 1008.2
20260508230322 69 233 5.0 9.0 0.00 0.00 0.00 46 1008.4
20260508225831 69 233 4.0 13.0 0.00 0.00 0.00 46 1008.3
20260508225343 69 207 4.0 13.0 0.00 0.00 0.00 47 1008.2
20260508224854 69 238 5.0 10.0 0.00 0.00 0.00 47 1008.1
20260508224325 69 228 5.0 10.0 0.00 0.00 0.00 46 1008.1
20260508223820 69 246 6.0 11.0 0.00 0.00 0.00 45 1008.1
20260508223333 70 252 5.0 11.0 0.00 0.00 0.00 46 1008.0
20260508222825 70 249 2.0 9.0 0.00 0.00 0.00 49 1007.9
20260508222317 70 251 4.0 11.0 0.00 0.00 0.00 47 1007.9
20260508221830 70 252 5.0 11.0 0.00 0.00 0.00 46 1007.9
20260508221322 70 215 5.0 11.0 0.00 0.00 0.00 46 1007.9
20260508220831 70 245 4.0 12.0 0.00 0.00 0.00 47 1007.8
20260508220322 69 248 6.0 12.0 0.00 0.00 0.00 45 1007.8
20260508215850 70 231 3.0 13.0 0.00 0.00 0.00 46 1007.9
20260508215325 70 253 7.0 13.0 0.00 0.00 0.00 44 1007.9
20260508214837 70 222 4.0 14.0 0.00 0.00 0.00 44 1008.0
20260508214328 71 243 6.0 14.0 0.00 0.00 0.00 45 1008.0
20260508213820 71 218 8.0 13.0 0.00 0.00 0.00 43 1008.1
20260508213332 71 225 8.0 13.0 0.00 0.00 0.00 43 1008.1
20260508212825 71 205 6.0 12.0 0.00 0.00 0.00 43 1008.0
20260508212317 71 248 5.0 15.0 0.00 0.00 0.00 43 1008.0
20260508211829 71 226 7.0 15.0 0.00 0.00 0.00 43 1008.2
20260508211321 72 249 8.0 12.0 0.00 0.00 0.00 41 1008.3
20260508210817 72 173 8.0 13.0 0.00 0.00 0.00 42 1008.3
20260508210330 71 262 5.0 19.0 0.00 0.00 0.00 45 1008.4
20260508205859 71 248 11.0 18.0 0.00 0.00 0.00 43 1008.4
20260508205327 70 229 7.0 17.0 0.00 0.00 0.00 43 1008.5
20260508204821 71 276 8.0 18.0 0.00 0.00 0.00 42 1008.5
20260508204314 71 267 12.0 18.0 0.00 0.00 0.00 42 1008.7
20260508202830 70 224 3.0 22.0 0.00 0.00 0.00 45 1008.9
20260508202326 70 283 8.0 22.0 0.00 0.00 0.00 44 1009.1
20260508201817 70 264 6.0 17.0 0.00 0.00 0.00 43 1009.2
20260508201330 71 217 11.0 17.0 0.00 0.00 0.00 43 1009.4
20260508200821 71 276 6.0 15.0 0.00 0.00 0.00 44 1009.4
20260508200314 71 262 9.0 15.0 0.00 0.00 0.00 44 1009.4
20260508195822 70 224 8.0 19.0 0.00 0.00 0.00 43 1009.4
20260508195314 70 222 12.0 20.0 0.00 0.00 0.00 43 1009.6
20260508194824 70 250 9.0 15.0 0.00 0.00 0.00 44 1009.8
20260508194320 70 212 8.0 15.0 0.00 0.00 0.00 42 1009.8
20260508193832 71 236 8.0 16.0 0.00 0.00 0.00 43 1009.8
20260508193323 70 243 6.0 16.0 0.00 0.00 0.00 43 1009.9
20260508192329 70 269 9.0 18.0 0.00 0.00 0.00 42 1009.9
20260508191843 70 284 8.0 22.0 0.00 0.00 0.00 41 1010.0
20260508191335 70 238 14.0 22.0 0.00 0.00 0.00 40 1010.0
20260508190847 71 253 5.0 23.0 0.00 0.00 0.00 42 1009.9
20260508190319 71 240 7.0 17.0 0.00 0.00 0.00 41 1010.0
20260508185849 70 238 6.0 14.0 0.00 0.00 0.00 41 1010.0
20260508185341 70 242 9.0 18.0 0.00 0.00 0.00 42 1010.1
20260508184817 70 258 10.0 18.0 0.00 0.00 0.00 42 1010.2
20260508184330 70 243 6.0 17.0 0.00 0.00 0.00 44 1010.3
20260508183823 70 243 11.0 17.0 0.00 0.00 0.00 42 1010.3
20260508183316 70 238 7.0 15.0 0.00 0.00 0.00 41 1010.4
20260508182829 70 228 10.0 15.0 0.00 0.00 0.00 40 1010.5
20260508182343 70 242 6.0 20.0 0.00 0.00 0.00 42 1010.5
20260508181814 69 255 11.0 20.0 0.00 0.00 0.00 41 1010.6
20260508181328 69 290 9.0 15.0 0.00 0.00 0.00 44 1010.8
20260508180820 70 263 6.0 16.0 0.00 0.00 0.00 45 1010.9
20260508180317 70 219 10.0 16.0 0.00 0.00 0.00 41 1011.0
20260508175827 70 245 9.0 15.0 0.00 0.00 0.00 41 1011.0
20260508175320 69 231 6.0 16.0 0.00 0.00 0.00 43 1011.1
20260508174832 69 267 10.0 17.0 0.00 0.00 0.00 43 1011.1
20260508174325 69 280 12.0 20.0 0.00 0.00 0.00 45 1011.2
20260508173818 69 243 9.0 20.0 0.00 0.00 0.00 41 1011.4
20260508173331 68 219 7.0 18.0 0.00 0.00 0.00 45 1011.4
20260508172820 68 269 10.0 20.0 0.00 0.00 0.00 42 1011.6
20260508171828 69 276 9.0 15.0 0.00 0.00 0.00 44 1011.8
20260508171320 68 274 7.0 15.0 0.00 0.00 0.00 47 1011.8
20260508170813 69 228 6.0 15.0 0.00 0.00 0.00 47 1011.9
20260508170327 69 277 7.0 11.0 0.00 0.00 0.00 45 1012.0
20260508165817 69 190 5.0 12.0 0.00 0.00 0.00 47 1012.1
20260508165330 69 228 5.0 9.0 0.00 0.00 0.00 48 1012.2
20260508164823 68 235 6.0 16.0 0.00 0.00 0.00 46 1012.4
20260508164320 68 229 7.0 16.0 0.00 0.00 0.00 49 1012.6
20260508163832 68 190 7.0 14.0 0.00 0.00 0.00 49 1012.6
20260508163325 68 250 6.0 12.0 0.00 0.00 0.00 49 1012.8
20260508162818 68 229 5.0 12.0 0.00 0.00 0.00 48 1012.8
20260508162332 68 201 6.0 12.0 0.00 0.00 0.00 47 1012.9
20260508161824 68 235 7.0 14.0 0.00 0.00 0.00 47 1013.0
20260508161316 68 243 8.0 14.0 0.00 0.00 0.00 48 1013.0
20260508160821 67 257 5.0 10.0 0.00 0.00 0.00 49 1013.0
20260508160336 67 252 4.0 12.0 0.00 0.00 0.00 51 1013.0
20260508155827 67 257 7.0 12.0 0.00 0.00 0.00 48 1013.1
20260508155321 66 238 5.0 17.0 0.00 0.00 0.00 51 1013.2
20260508154814 65 259 11.0 17.0 0.00 0.00 0.00 47 1013.3
20260508154329 66 290 11.0 16.0 0.00 0.00 0.00 46 1013.4
20260508153823 66 245 8.0 14.0 0.00 0.00 0.00 47 1013.5
20260508153336 65 283 7.0 13.0 0.00 0.00 0.00 49 1013.6
20260508152828 65 235 4.0 10.0 0.00 0.00 0.00 50 1013.6
20260508152322 65 277 6.0 10.0 0.00 0.00 0.00 51 1013.8
20260508151818 65 281 5.0 10.0 0.00 0.00 0.00 51 1013.8
20260508151330 65 245 6.0 10.0 0.00 0.00 0.00 51 1013.8
20260508150824 65 256 5.0 11.0 0.00 0.00 0.00 51 1013.8
20260508150317 64 240 4.0 12.0 0.00 0.00 0.00 53 1013.9
20260508145829 64 211 6.0 12.0 0.00 0.00 0.00 51 1013.8
20260508145321 64 271 5.0 10.0 0.00 0.00 0.00 54 1013.9
20260508144814 64 257 4.0 10.0 0.00 0.00 0.00 55 1013.9
20260508144328 63 256 5.0 8.0 0.00 0.00 0.00 54 1014.0
20260508143825 62 242 3.0 13.0 0.00 0.00 0.00 56 1014.0
20260508143318 62 250 7.0 13.0 0.00 0.00 0.00 55 1014.1
20260508142851 62 246 7.0 11.0 0.00 0.00 0.00 54 1014.0
20260508142323 61 230 8.0 10.0 0.00 0.00 0.00 55 1014.0
20260508141816 61 235 6.0 10.0 0.00 0.00 0.00 56 1014.1
20260508141331 61 231 5.0 15.0 0.00 0.00 0.00 57 1014.1
20260508140325 60 231 5.0 10.0 0.00 0.00 0.00 59 1014.1
20260508135820 60 262 4.0 10.0 0.00 0.00 0.00 59 1014.1
20260508135353 59 249 6.0 12.0 0.00 0.00 0.00 61 1014.1
20260508134846 59 232 4.0 12.0 0.00 0.00 0.00 62 1014.2
20260508134337 58 256 5.0 9.0 0.00 0.00 0.00 60 1014.2
20260508133828 58 257 4.0 8.0 0.00 0.00 0.00 62 1014.2
20260508133320 57 244 4.0 7.0 0.00 0.00 0.00 62 1014.3
20260508132832 57 262 4.0 6.0 0.00 0.00 0.00 62 1014.2
20260508132323 56 256 2.0 6.0 0.00 0.00 0.00 64 1014.3
20260508131836 56 210 1.0 6.0 0.00 0.00 0.00 66 1014.3
20260508131327 55 253 3.0 6.0 0.00 0.00 0.00 65 1014.3
20260508130823 55 226 1.0 4.0 0.00 0.00 0.00 66 1014.2
20260508130337 54 222 1.0 5.0 0.00 0.00 0.00 68 1014.2
20260508125825 53 239 2.0 5.0 0.00 0.00 0.00 67 1014.2
20260508125317 53 218 2.0 5.0 0.00 0.00 0.00 68 1014.2
20260508124831 52 246 2.0 4.0 0.00 0.00 0.00 69 1014.2
20260508124325 51 275 3.0 6.0 0.00 0.00 0.00 69 1014.2
20260508123819 51 264 3.0 6.0 0.00 0.00 0.00 69 1014.2
20260508123352 50 233 3.0 6.0 0.00 0.00 0.00 70 1014.2
20260508122823 50 245 2.0 6.0 0.00 0.00 0.00 72 1014.2
20260508122319 49 238 3.0 5.0 0.00 0.00 0.00 73 1014.1
20260508121852 49 229 3.0 5.0 0.00 0.00 0.00 73 1014.1
20260508121324 48 215 2.0 6.0 0.00 0.00 0.00 75 1014.1
20260508120816 48 238 3.0 8.0 0.00 0.00 0.00 75 1014.1
20260508120328 47 218 2.0 4.0 0.00 0.00 0.00 77 1014.0
20260508115818 47 217 1.0 3.0 0.00 0.00 0.00 78 1014.0
20260508115330 46 221 1.0 3.0 0.00 0.00 0.00 79 1013.9
20260508114823 45 215 1.0 3.0 0.00 0.00 0.00 80 1013.9
20260508114335 45 222 1.0 2.0 0.00 0.00 0.00 81 1013.8
20260508113826 44 222 1.0 2.0 0.00 0.00 0.00 82 1013.8
20260508113322 43 223 1.0 2.0 0.00 0.00 0.00 82 1013.8
20260508112836 43 222 1.0 2.0 0.00 0.00 0.00 83 1013.6
20260508112328 42 198 1.0 2.0 0.00 0.00 0.00 83 1013.6
20260508111821 41 193 1.0 2.0 0.00 0.00 0.00 83 1013.7
20260508111315 41 226 1.0 2.0 0.00 0.00 0.00 84 1013.7
20260508110829 40 226 1.0 1.0 0.00 0.00 0.00 84 1013.6
20260508110321 39 226 1.0 1.0 0.00 0.00 0.00 84 1013.6
20260508105830 39 226 0.0 1.0 0.00 0.00 0.00 84 1013.5
20260508105326 39 226 0.0 1.0 0.00 0.00 0.00 84 1013.6
20260508104838 39 226 0.0 1.0 0.00 0.00 0.00 84 1013.5
20260508104329 39 227 0.0 0.0 0.00 0.00 0.00 84 1013.5
20260508103828 39 226 0.0 0.0 0.00 0.00 0.00 84 1013.5
20260508103341 39 226 0.0 1.0 0.00 0.00 0.00 84 1013.4
20260508102812 39 226 0.0 1.0 0.00 0.00 0.00 84 1013.4
20260508102324 39 226 1.0 1.0 0.00 0.00 0.00 84 1013.4
20260508101816 39 226 0.0 1.0 0.00 0.00 0.00 83 1013.4
20260508101329 39 226 0.0 1.0 0.00 0.00 0.00 83 1013.4
20260508100823 39 226 0.0 1.0 0.00 0.00 0.00 83 1013.4
20260508100340 39 226 0.0 1.0 0.00 0.00 0.00 83 1013.4
20260508095829 39 226 1.0 1.0 0.00 0.00 0.00 83 1013.3
20260508095322 39 226 0.0 1.0 0.00 0.00 0.00 83 1013.4
20260508094314 39 226 0.0 1.0 0.00 0.00 0.00 83 1013.5
20260508092830 40 226 0.0 0.0 0.00 0.00 0.00 83 1013.5
20260508092327 40 226 0.0 1.0 0.00 0.00 0.00 83 1013.4
20260508091820 40 226 0.0 1.0 0.00 0.00 0.00 83 1013.3
20260508091313 40 226 0.0 1.0 0.00 0.00 0.00 83 1013.3
20260508090826 41 226 0.0 1.0 0.00 0.00 0.00 83 1013.3
20260508090339 41 226 0.0 1.0 0.00 0.00 0.00 82 1013.3
20260508085827 41 226 0.0 1.0 0.00 0.00 0.00 82 1013.2
20260508085320 42 226 0.0 1.0 0.00 0.00 0.00 81 1013.2
20260508084326 42 226 0.0 1.0 0.00 0.00 0.00 80 1013.3
20260508083823 43 226 0.0 1.0 0.00 0.00 0.00 80 1013.2
20260508083316 43 226 0.0 1.0 0.00 0.00 0.00 80 1013.2
20260508082829 43 226 0.0 1.0 0.00 0.00 0.00 80 1013.2
20260508082320 42 226 1.0 2.0 0.00 0.00 0.00 80 1013.2
20260508081832 42 226 0.0 2.0 0.00 0.00 0.00 80 1013.2
20260508081325 42 218 1.0 1.0 0.00 0.00 0.00 80 1013.1
20260508080818 42 218 1.0 1.0 0.00 0.00 0.00 80 1013.1
20260508080314 42 218 0.0 1.0 0.00 0.00 0.00 79 1013.1
20260508075826 43 218 0.0 1.0 0.00 0.00 0.00 78 1013.1
20260508075338 43 218 0.0 1.0 0.00 0.00 0.00 78 1013.1
20260508074830 43 218 0.0 1.0 0.00 0.00 0.00 78 1013.0
20260508074322 43 218 1.0 1.0 0.00 0.00 0.00 78 1012.9
20260508073814 43 219 1.0 2.0 0.00 0.00 0.00 78 1013.0
20260508073327 43 218 1.0 2.0 0.00 0.00 0.00 78 1013.0
20260508072820 43 218 0.0 1.0 0.00 0.00 0.00 78 1013.1
20260508072314 44 218 0.0 2.0 0.00 0.00 0.00 77 1013.2
20260508071832 44 218 1.0 2.0 0.00 0.00 0.00 76 1013.2
20260508071326 44 218 1.0 2.0 0.00 0.00 0.00 76 1013.2
20260508070819 44 218 2.0 2.0 0.00 0.00 0.00 76 1013.3
20260508070331 44 218 1.0 1.0 0.00 0.00 0.00 76 1013.4
20260508065821 44 218 0.0 1.0 0.00 0.00 0.00 75 1013.4
20260508065314 45 218 1.0 1.0 0.00 0.00 0.00 74 1013.5
20260508064321 44 218 1.0 1.0 0.00 0.00 0.00 76 1013.5
20260508063317 44 218 0.0 0.0 0.00 0.00 0.00 76 1013.7
20260508062830 44 218 0.0 1.0 0.00 0.00 0.00 76 1013.7
20260508062322 45 218 0.0 1.0 0.00 0.00 0.00 74 1013.8
20260508061835 45 218 0.0 1.0 0.00 0.00 0.00 73 1013.8
20260508061346 46 219 1.0 2.0 0.00 0.00 0.00 72 1013.8
20260508060317 46 218 1.0 1.0 0.00 0.00 0.00 72 1013.9
20260508055828 46 218 1.0 2.0 0.00 0.00 0.00 72 1013.8
20260508055322 46 218 1.0 3.0 0.00 0.00 0.00 72 1013.9
20260508054821 46 221 2.0 3.0 0.00 0.00 0.00 72 1014.0
20260508054314 46 222 1.0 4.0 0.00 0.00 0.00 73 1014.1
20260508053848 46 222 2.0 4.0 0.00 0.00 0.00 73 1014.0
20260508053320 46 222 1.0 2.0 0.00 0.00 0.00 74 1014.0
20260508052813 45 223 1.0 2.0 0.00 0.00 0.00 74 1014.0
20260508052327 45 222 2.0 2.0 0.00 0.00 0.00 75 1013.9
20260508051820 45 222 1.0 2.0 0.00 0.00 0.00 75 1013.9
20260508051331 45 222 1.0 1.0 0.00 0.00 0.00 76 1013.9
20260508050824 44 222 1.0 2.0 0.00 0.00 0.00 78 1013.9
20260508050343 44 223 1.0 2.0 0.00 0.00 0.00 79 1013.9
20260508045813 44 223 0.0 1.0 0.00 0.00 0.00 80 1013.9
20260508045326 44 222 0.0 1.0 0.00 0.00 0.00 79 1013.9
20260508044818 44 223 1.0 2.0 0.00 0.00 0.00 79 1013.9
20260508044350 44 223 1.0 2.0 0.00 0.00 0.00 79 1013.9
20260508043820 43 222 2.0 2.0 0.00 0.00 0.00 81 1013.9
20260508043313 42 235 1.0 2.0 0.00 0.00 0.00 82 1013.9
20260508042826 42 235 1.0 2.0 0.00 0.00 0.00 82 1014.0
20260508041840 42 284 0.0 2.0 0.00 0.00 0.00 82 1013.9
20260508041316 42 134 2.0 2.0 0.00 0.00 0.00 82 1013.9
20260508040848 42 235 0.0 1.0 0.00 0.00 0.00 82 1013.9
20260508040339 42 235 0.0 1.0 0.00 0.00 0.00 82 1013.8
20260508035827 42 235 0.0 1.0 0.00 0.00 0.00 82 1013.8
20260508035318 42 235 0.0 1.0 0.00 0.00 0.00 82 1013.9
20260508034831 42 235 0.0 0.0 0.00 0.00 0.00 82 1013.9
20260508034322 42 235 0.0 0.0 0.00 0.00 0.00 80 1013.8
20260508033815 42 235 0.0 0.0 0.00 0.00 0.00 80 1013.8
20260508033328 42 235 0.0 0.0 0.00 0.00 0.00 80 1013.8
20260508032823 43 236 0.0 0.0 0.00 0.00 0.00 79 1013.8
20260508032314 43 235 0.0 0.0 0.00 0.00 0.00 78 1013.9
20260508031827 43 235 0.0 0.0 0.00 0.00 0.00 78 1013.8
20260508031318 44 235 0.0 0.0 0.00 0.00 0.00 78 1013.8
20260508030830 44 235 0.0 0.0 0.00 0.00 0.00 76 1013.8
20260508030322 45 235 0.0 0.0 0.00 0.00 0.00 77 1013.8
20260508025831 45 235 0.0 1.0 0.00 0.00 0.00 76 1013.8
20260508025325 45 235 0.0 1.0 0.00 0.00 0.00 75 1013.8
20260508024838 46 235 0.0 1.0 0.00 0.00 0.00 75 1013.7
20260508024314 46 235 0.0 1.0 0.00 0.00 0.00 73 1013.6
20260508023827 46 235 0.0 1.0 0.00 0.00 0.00 72 1013.6
20260508023319 47 235 0.0 0.0 0.00 0.00 0.00 70 1013.6
20260508022831 47 235 0.0 0.0 0.00 0.00 0.00 69 1013.6
20260508022323 48 235 0.0 1.0 0.00 0.00 0.00 67 1013.5
20260508021816 48 235 0.0 1.0 0.00 0.00 0.00 66 1013.5
20260508021329 48 234 0.0 1.0 0.00 0.00 0.00 64 1013.5
20260508020822 49 235 0.0 0.0 0.00 0.00 0.00 63 1013.5
20260508020338 49 234 0.0 1.0 0.00 0.00 0.00 62 1013.5
20260508015828 49 234 1.0 1.0 0.00 0.00 0.00 62 1013.5
20260508015359 49 235 0.0 1.0 0.00 0.00 0.00 60 1013.5
20260508014819 50 235 0.0 1.0 0.00 0.00 0.00 60 1013.5
20260508014331 50 234 0.0 1.0 0.00 0.00 0.00 60 1013.4
20260508013823 51 235 0.0 1.0 0.00 0.00 0.00 58 1013.3
20260508013316 51 235 0.0 2.0 0.00 0.00 0.00 56 1013.2
20260508012829 51 235 1.0 2.0 0.00 0.00 0.00 55 1013.2
20260508012322 51 235 2.0 2.0 0.00 0.00 0.00 55 1013.1
20260508011313 52 284 0.0 0.0 0.00 0.00 0.00 52 1013.0
20260508010829 53 284 0.0 0.0 0.00 0.00 0.00 51 1013.0
20260508010321 53 284 0.0 0.0 0.00 0.00 0.00 50 1013.0
20260508005850 54 284 0.0 0.0 0.00 0.00 0.00 49 1013.0
20260508005321 55 283 0.0 0.0 0.00 0.00 0.00 47 1013.0
20260508004812 56 284 0.0 0.0 0.00 0.00 0.00 46 1013.0
20260508004324 57 283 0.0 0.0 0.00 0.00 0.00 45 1012.9
20260508003816 58 283 0.0 0.0 0.00 0.00 0.00 44 1012.9
20260508003349 59 284 0.0 0.0 0.00 0.00 0.00 43 1012.8
20260508002820 59 284 0.0 2.0 0.00 0.00 0.00 44 1012.8
20260508002317 60 283 0.0 2.0 0.00 0.00 0.00 42 1012.8
20260508001830 61 27 0.0 2.0 0.00 0.00 0.00 43 1012.7
20260508001342 62 27 0.0 2.0 0.00 0.00 0.00 41 1012.7
20260508000813 62 31 0.0 1.0 0.00 0.00 0.00 43 1012.6
20260508000327 62 31 1.0 1.0 0.00 0.00 0.00 41 1012.6
20260507235837 62 31 1.0 2.0 0.00 0.00 0.00 42 1012.6
20260507235329 62 32 1.0 2.0 0.00 0.00 0.00 42 1012.6
20260507234821 61 32 1.0 3.0 0.00 0.00 0.00 40 1012.6
20260507234313 61 33 1.0 4.0 0.00 0.00 0.00 42 1012.6
20260507233824 61 14 2.0 4.0 0.00 0.00 0.00 41 1012.5
20260507233321 61 41 2.0 5.0 0.00 0.00 0.00 41 1012.6